Location: Kosice
(0.0000°N, 21.2500°E)
Time: 06:05:40
(UTC+01:00)

Lacrosse 5 rocket - Pass Details

Date: 24 January 2021
Orbit: 465 x 630 km, 57.0° (Epoch: 04 March)

Event Time Altitude Azimuth Distance (km) Brightness Sun altitude
Rises 19:36:12 0° 221° (SW) 2,895 6.0 -25.6°
Reaches altitude 10° 19:38:34 10° 227° (SW) 1,997 5.0 -26.2°
Maximum altitude 19:42:56 44° 300° (WNW) 865 2.4 -27.2°
Enters shadow 19:43:07 44° 307° (NW) 869 2.4 -27.3°
